Location: Laverne
(36.7100°N, 99.8930°W)
Time: 08:33:36
(UTC-05:00)

Daily predictions for brighter satellites

Satellite Brightness Start Highest point End
(mag) Time Altitude Azimuth Time Altitude Azimuth Time Altitude Azimuth
USA 267 3.4 20:41:31 10° NE 20:48:07 88° NW 20:54:39 10° SW
Cosmos 1315 Rocket 3.2 20:47:43 10° NNW 20:51:44 68° W 20:55:41 10° S
Cosmos 1455 3.9 20:51:22 10° SSW 20:54:53 37° W 20:58:26 10° N
Cosmos 2279 Rocket 4.2 20:51:57 10° SSE 20:57:55 50° E 21:03:53 10° NNE
FengYun 1-2 T 4.4 20:52:21 10° SSE 20:58:01 84° WSW 21:03:42 10° NNW
FENGYUN 3A 4.1 20:55:47 10° S 21:01:04 65° WSW 21:06:25 10° NNW
Cosmos 1933 3.8 20:58:40 10° SSE 21:02:25 38° E 21:06:10 10° NNE
Cosmos 1627 Rocket 4.5 20:57:01 10° N 21:03:12 72° E 21:09:17 10° SSE
Spot 2 Rocket 3.5 20:59:39 10° SSE 21:04:43 73° ENE 21:09:47 10° N
Cosmos 1503 Rocket 4.1 21:03:50 10° NNW 21:09:05 81° WSW 21:14:15 10° SSE
Resurs 01 Rocket 1.7 21:08:15 10° S 21:12:42 82° W 21:17:10 10° NNW
SAR-Lupe-4 4.3 21:12:36 11° SE 21:15:39 34° ENE 21:18:56 10° N
Cosmos 1354 Rocket 4.4 21:11:03 10° NNW 21:16:17 69° WSW 21:21:28 10° S
Cosmos 1862 3.4 21:13:04 10° N 21:17:04 59° E 21:21:04 10° SSE
USA 234 4.4 21:15:25 10° E 21:20:59 31° NNE 21:26:33 10° NNW
Envisat 3.3 21:20:09 10° SE 21:25:00 49° ENE 21:29:54 10° N
Meteor 1-29 3.3 21:21:48 10° NNE 21:25:07 42° E 21:28:22 10° S
Cosmos 2263 Rocket 2.1 21:20:04 10° NNW 21:25:40 82° ENE 21:31:16 10° SSE
ORS 1 (USA 231) 4.4 21:24:58 10° WNW 21:28:03 80° SSW 21:29:48 23° ESE
Helios 1A 3.0 21:25:22 11° SSE 21:29:26 62° ENE 21:33:39 10° N
Sich 1 Rocket 4.3 21:25:25 10° NNE 21:29:33 35° ENE 21:32:22 18° SE
Cosmos 2180 Rocket 4.5 21:24:54 10° S 21:31:15 78° E 21:37:34 10° N
OAO 3 Rocket 3.5 21:26:51 10° W 21:31:36 54° SSW 21:34:50 20° SE
SAR-Lupe-1 4.3 21:30:30 18° SE 21:32:54 48° ENE 21:36:23 10° N
Cosmos 1733 Rocket 3.1 21:29:33 10° N 21:34:01 82° W 21:38:28 10° S
Okean 1-7 4.2 21:33:16 20° ESE 21:34:49 24° E 21:38:22 10° NE
SEDSat Delta rocket 3.9 21:31:46 10° WSW 21:36:28 45° S 21:39:49 21° ESE
Cosmos 1825 3.3 21:33:11 10° NNW 21:36:49 44° W 21:40:27 10° SSW
Cosmos 2322 Rocket 4.1 21:31:55 10° SW 21:36:56 33° WNW 21:42:00 10° N
Cosmos 1867 3.7 21:32:14 10° NNW 21:37:38 60° ENE 21:41:15 21° SE
CZ-4B DEB 4.4 21:35:04 15° SSE 21:37:55 76° ENE 21:41:28 10° N
Cosmos 1408 4.0 21:35:01 10° NNW 21:38:28 39° W 21:41:50 10° SSW
Cosmos 2237 4.3 21:34:30 10° S 21:40:05 57° ESE 21:45:41 10° NNE
Cosmos 1939 Rocket 3.0 21:38:03 20° SE 21:40:39 54° ENE 21:44:33 10° N
Cosmos 1862 Rocket 4.2 21:38:11 10° SSW 21:42:35 60° W 21:47:01 10° N
Cosmos 2360 Rocket 2.4 21:38:02 10° SSW 21:43:41 78° WNW 21:49:22 10° NNE
ERS-1 Rocket 3.7 21:42:00 22° ESE 21:44:26 34° ENE 21:48:56 10° N
SPOT 5 4.3 21:48:33 18° E 21:49:31 19° ENE 21:52:42 10° NNE
COSMOS 2428 2.8 21:44:14 10° S 21:49:41 51° ESE 21:55:11 10° NNE
Sakura Rocket 3.9 21:47:05 10° SW 21:50:13 25° S 21:50:44 25° SSE
Okean 2 Rocket 4.2 21:47:20 10° NNE 21:51:05 25° ENE 21:51:48 24° E
Atlas Centaur 2 2.9 21:48:16 10° WSW 21:54:27 52° S 21:58:46 25° ESE
ATLAS 5 CENTAUR R/B 2.5 21:48:50 10° NNW 21:54:59 85° WSW 21:59:23 22° SSE
USA 186 3.9 21:57:39 10° SSW 21:59:53 21° W 22:02:15 10° NW
NOSS 3-1 (C) 3.5 21:55:18 10° S 22:00:37 44° ESE 22:06:27 10° NE
ARGOS 4.2 22:00:08 24° E 22:01:32 27° ENE 22:05:59 10° NNE
Cosmos 1703 Rocket 3.5 21:59:40 14° S 22:03:28 83° E 22:07:53 10° N
Cosmos 2322 4.2 21:58:25 10° SSW 22:04:03 61° WNW 22:09:43 10° NNE
Milstar 3 3.8 21:59:38 10° W 22:06:46 32° SSW 22:09:37 24° SSE
USA 229 DEB 4.0 22:00:46 10° SW 22:07:31 68° NW 22:14:26 10° NNE
USA 229 4.0 22:00:52 10° SW 22:07:38 69° WNW 22:14:34 10° NNE
Lacrosse 4 Rocket 4.2 22:06:24 10° WNW 22:08:39 14° WSW 22:10:56 10° SW
Helios 1B rocket 3.9 22:05:49 10° N 22:09:37 38° WNW 22:13:25 10° SW
YAOGAN 6 2.5 22:09:21 57° SE 22:09:57 72° ENE 22:13:33 10° N
Meteor 1-25 Rocket 4.3 22:08:14 10° N 22:13:42 56° E 22:15:34 38° SE
Meteor 1-14 Rocket 4.2 22:10:52 10° N 22:16:37 85° E 22:19:40 30° S
NOSS 3-1 (A) 3.6 22:16:00 33° SSE 22:17:53 43° ESE 22:23:42 10° NE
Meteor 1-20 Rocket 4.3 22:15:12 10° N 22:20:45 58° E 22:22:23 42° SE
Cosmos 2237 Rocket 3.3 22:24:38 27° ENE 22:24:38 27° ENE 22:28:06 10° NE
Cosmos 1777 Rocket 3.9 22:19:20 10° NNW 22:24:36 71° ENE 22:25:54 50° SE
MetOp-A 4.1 22:24:43 46° SE 22:26:08 63° ENE 22:31:26 10° N
Cosmos 2333 4.2 22:20:35 10° SSW 22:26:18 87° WNW 22:32:06 10° NNE
SPOT 1/Viking Rocket 4.4 22:26:06 33° ENE 22:26:29 33° ENE 22:31:07 10° N
Cosmos 1844 Rocket 2.8 22:21:15 10° NNW 22:26:43 55° ENE 22:27:55 46° ESE
Terra 3.9 22:28:13 14° ENE 22:28:13 14° ENE 22:30:12 10° NNE
Cosmos 2333 Rocket 2.4 22:28:13 47° SE 22:28:52 49° ESE 22:34:24 10° NNE
Cosmos 2278 Rocket 3.5 22:26:08 10° N 22:30:45 25° ENE 22:31:26 24° ENE
NOSS 0 Rocket 4.1 22:30:33 45° ESE 22:31:03 46° ESE 22:36:52 10° NE
Cosmos 2266 Rocket 4.2 22:26:13 10° N 22:32:31 73° W 22:36:19 26° S
Cosmos 2221 Rocket 4.0 22:30:33 27° SSW 22:32:50 61° W 22:37:14 10° N
YAOGAN 11 4.0 22:34:51 67° ENE 22:34:52 67° ENE 22:39:11 10° N
Meteor 2-6 Rocket 4.4 22:33:58 49° SE 22:35:15 59° E 22:41:06 10° NNE
Cosmos 2219 Rocket 2.0 22:43:24 33° SSW 22:46:01 88° ESE 22:51:40 10° NNE
H-2A R/B 3.9 22:47:46 20° NE 22:47:46 20° NE 22:49:53 10° NNE
Gbstr 26 Del rocket 4.3 22:39:48 10° SW 22:47:15 68° SE 22:55:21 10° NE
Cosmos 1782 3.7 23:00:01 48° WNW 23:00:01 48° WNW 23:03:34 10° N
Cosmos 1244 Rocket 4.4 22:54:50 10° N 23:01:09 87° E 23:02:10 65° S
USA 234 3.1 23:02:14 61° SSE 23:03:30 83° SW 23:10:05 10° NW
Cosmos 1553 Rocket 3.8 23:06:14 71° ESE 23:06:26 71° E 23:12:37 10° NNE
SL-08 R/B 4.5 23:02:04 10° N 23:08:00 62° ENE 23:08:00 62° ENE
SL-08 RB Rocket 4.2 23:11:21 59° NNW 23:11:21 59° NNW 23:15:07 10° NNW
H-2A R/B 2.3 23:18:33 61° N 23:18:33 61° N 23:22:38 10° NNW
SeaSat 1 2.9 23:21:33 59° N 23:21:33 59° N 23:25:35 10° NNW
Meteor 1-27 Rocket 3.7 23:22:18 77° NNW 23:22:18 77° NNW 23:27:32 10° N
SPOT 5 3.9 23:27:47 38° W 23:27:47 38° W 23:31:40 10° NNW
CZ-4C R/B 2.9 23:21:39 10° NNW 23:28:55 69° ENE 23:29:38 65° E
S3M 4.1 23:38:14 67° W 23:38:20 67° W 23:44:32 10° N
Cosmos 1980 4.3 23:39:48 51° W 23:40:11 52° WNW 23:45:42 10° NNE
ARGOS 4.3 23:41:38 34° W 23:41:38 34° W 23:46:27 10° NNW
Atlas Centaur 2 3.8 23:37:00 10° W 23:41:23 33° SW 23:41:23 33° SW
ASTEX 1 4.5 23:47:35 42° NNW 23:47:35 42° NNW 23:51:02 10° NNW
SL-16 R/B 3.6 23:49:41 29° NE 23:49:41 29° NE 23:52:26 10° NNE
Meteor 1-11 Rocket 4.4 23:46:53 10° NNW 23:51:21 49° WNW 23:51:21 49° WNW
